Home   Weather   Bhinga   Past weeks

Flag for India Past Weather in Bhinga, Uttar Pradesh, India — Yesterday and Last 2 Weeks

Now
64 °F

Haze.


Feels Like: 64 °F
Forecast: 47 / 76 °F
Wind: 5 mph from West

Location: Lucknow / Amausi

Current Time: Jan 19, 2017 at 6:39:16 pm

Latest Report: Jan 19, 2017 at 6:00 pm


Visibility: 1 mi

Pressure: 30.07 "Hg

Humidity: 60%

Dew Point: 50 °F

Location of BhingaLocation

Past Weather in Bhinga — Graph

°F

Bhinga Temperature Yesterday

Maximum temperature yesterday: 68 °F (at 3:00 pm)
Minimum temperature yesterday: 46 °F (at 5:00 am)
Average temperature yesterday: 54 °F

High & Low Weather Summary for the Past Weeks

 TemperatureHumidityPressure
High77 °F (Jan 16, 2:00 pm)100% (Jan 4, 7:30 pm)30.21 "Hg (Jan 4, 7:30 pm)
Low36 °F (Jan 12, 5:00 am)29% (Jan 10, 1:00 pm)29.80 "Hg (Jan 7, 2:00 pm)
Average56 °F76%30.00 "Hg
* Reported Jan 4 5:30 pm — Jan 19 5:30 pm, Bhinga, Weather by CustomWeather, © 2017

Note: Actual official high and low records may vary slightly from our data, if they occured in-between our weather recording intervals... More about our weather records

Advertising

Bhinga Weather History for the Previous 24 Hours

Scroll right to see more
 ConditionsComfort  
Time TempWeatherWind HumidityBarometerVisibility
5:30 pm
Thu, Jan 19
66 °FHaze.3 mph56%30.07 "Hg1 mi
5:00 pm70 °FHaze.7 mph50%30.07 "Hg1 mi
4:30 pm72 °FHaze.7 mph50%30.07 "Hg1 mi
4:00 pm73 °FHaze.5 mph38%30.07 "Hg1 mi
3:30 pm72 °FHaze.3 mph47%30.07 "Hg1 mi
3:00 pm72 °FHaze.3 mph47%30.07 "Hg1 mi
2:30 pm70 °FHaze.5 mph50%30.09 "Hg1 mi
2:00 pm70 °FHaze.5 mph50%30.09 "Hg1 mi
1:30 pm70 °FHaze.3 mph50%30.12 "Hg1 mi
1:00 pm68 °FHaze.5 mph49%30.15 "Hg1 mi
12:30 pm66 °FHaze.5 mph56%30.15 "Hg1 mi
12:00 pm63 °FHaze.5 mph68%30.18 "Hg1 mi
11:30 am59 °FHaze.5 mph77%30.21 "Hg1 mi
11:00 am59 °FFog.5 mph77%30.21 "Hg1 mi
10:30 am55 °FFog.5 mph82%30.21 "Hg1 mi
10:00 am52 °FFog.5 mph94%30.21 "Hg1 mi
9:30 am50 °FFog.5 mph94%30.18 "Hg1 mi
9:00 am46 °FFog.7 mph93%30.18 "Hg0 mi
8:30 am45 °FFog.7 mph93%30.18 "Hg0 mi
8:00 am45 °FFog.3 mph93%30.18 "Hg0 mi
7:30 am43 °FFog.3 mph100%30.15 "Hg0 mi
7:00 am43 °FFog.3 mph100%30.12 "Hg0 mi
6:30 am45 °FFog.5 mph93%30.12 "Hg0 mi
6:00 am43 °FFog.3 mph93%30.12 "Hg0 mi
5:30 am45 °FFog.3 mph93%30.09 "Hg0 mi
5:00 am45 °FFog.2 mph100%30.09 "Hg0 mi
4:00 am46 °FFog.2 mph93%30.12 "Hg1 mi
2:00 am48 °FFog.3 mph94%30.12 "Hg1 mi
1:00 am48 °FFog.3 mph94%30.12 "Hg1 mi
12:00 am52 °FFog.3 mph94%30.12 "Hg1 mi
11:00 pm
Wed, Jan 18
52 °FFog.3 mph94%30.12 "Hg1 mi
10:00 pm52 °FFog.3 mph94%30.15 "Hg1 mi
9:00 pm52 °FFog.2 mph94%30.12 "Hg1 mi
8:30 pm52 °FFog.3 mph94%30.12 "Hg1 mi
8:00 pm54 °FFog.2 mph88%30.12 "Hg1 mi
7:30 pm55 °FFog.2 mph82%30.12 "Hg1 mi
7:00 pm57 °FFog.2 mph77%30.12 "Hg1 mi
Weather by CustomWeather, © 2017

See weather overviewHow to use our weather pages